Location: Unspecified
(0.0000°N, 0.0000°E)
Time: 06:41:29
(UTC+00:00)

Hubble Space Telescope - Pass Details

Date: 24 July 2021
Orbit: 535 x 539 km, 28.5° (Epoch: 31 July)

Event Time Altitude Azimuth Distance (km) Brightness Sun altitude
Exits shadow 03:48:16 13° 112° (ESE) 1,611 3.6 -32.3°
Drops below altitude 10° 03:48:42 10° 113° (ESE) 1,780 3.9 -32.2°
Sets 03:50:59 0° 116° (ESE) 2,672 4.8 -31.6°
